Domov               UVHVVR             MKGP            O straneh              
ZDRAVSTVENO VARSTVO RASTLIN
  MREŽA AGROMET. POSTAJ
 ► PROGNOSTIČNA OBVESTILA
AGROMETEOROLOŠKI PODATKI -
ARSO
OBVLADOVANJE TVEGANJ ZARADI
NEUGODNIH VREMENSKIH RAZMER
  ► NARAVNE NESREČE
  ► SUŠA/MOČA
  ► NAMAKANJE
  ► ŽLED (gozdarstvo)
KARTOGRAFSKI PRIKAZI
SPLETNE POVEZAVE
PROJEKTI IN PUBLIKACIJE

AGROMETEOROLOŠKA MREŽA: VREMENSKE POSTAJE IN FENOLOŠKA OPAZOVANJA

Pregled podatkov za lokacijo Labor, meteorološka postaja 42414

Pregled senzorjev na lokaciji

ID Ime Zadnja
vrednost
Datum
zadnje
spremembe
Tip
senzorja
2099 Temperatura 2 m ( °C) 23,29 °C 19.8.2017 05:00 50YA
2100 Relativna vlaga 2 m (% RH) 42,45 % RH 19.8.2017 05:00 50YA
2101 Omočenost lista (U) 0 U 19.8.2017 05:00 A730WET
2102 Padavine 0.2 mm (mm) 0 mm 19.8.2017 05:00 Rain-O-Matic

Pregled podatkov zadnjih 24 ur

Zap.
št.
Datum in čas Labor
Omočenost
lista
Padavine
0.2
mm
Relativna
vlaga
2
m
Temperatura
2
m
0 19.8.2017 04:00 0 0 42,45 23,29
1 19.8.2017 03:30 0 0 47,02 22,66
2 19.8.2017 03:00 0 0 48 22,48
3 19.8.2017 02:30 0 0 45,34 23
4 19.8.2017 02:00 0 0 44,22 23,42
5 19.8.2017 01:30 0 0 50,83 23,05
6 19.8.2017 01:00 0 0 51,67 23,25
7 19.8.2017 00:30 0 0 48,28 24,22
8 19.8.2017 00:00 0 0 49,21 24,05
9 18.8.2017 23:30 0 0 48,46 24,53
10 18.8.2017 23:00 0 0 45,67 25,37
11 18.8.2017 22:30 0 0 43,45 26,09
12 18.8.2017 22:00 0 0 45,07 25,63
13 18.8.2017 21:30 0 0 46,85 25,07
14 18.8.2017 21:00 0 0 47,5 24,94
15 18.8.2017 20:30 0 0 51,49 24,77
16 18.8.2017 20:00 0 0 53,68 24,82
17 18.8.2017 19:30 0 0 54,73 25,69
18 18.8.2017 19:00 0 0 54,19 26,8
19 18.8.2017 18:30 0 0 42,13 28,3
20 18.8.2017 18:00 0 0 36,66 29,41
21 18.8.2017 17:30 0 0 34,56 29,99
22 18.8.2017 17:00 0 0 31,22 30,62
23 18.8.2017 16:30 0 0 32 30,86
24 18.8.2017 16:00 0 0 30,37 31,81
25 18.8.2017 15:30 0 0 29,06 32,22
26 18.8.2017 15:00 0 0 27,51 32,7
27 18.8.2017 14:30 0 0 24,97 32,79
28 18.8.2017 14:00 0 0 25,2 32,47
29 18.8.2017 13:30 0 0 26,42 32,74
30 18.8.2017 13:00 0 0 24,4 33,24
31 18.8.2017 12:30 0 0 25,04 32,78
32 18.8.2017 12:00 0 0 26,37 32,36
33 18.8.2017 11:30 0 0 25,51 32,57
34 18.8.2017 11:00 0 0 25,14 32,47
35 18.8.2017 10:30 0 0 24,37 32,14
36 18.8.2017 10:00 0 0 23,59 31,66
37 18.8.2017 09:30 0 0 25,35 30,95
38 18.8.2017 09:00 0 0 26,56 30,69
39 18.8.2017 08:30 0 0 28,78 29,41
40 18.8.2017 08:00 0 0 32,55 28,1
41 18.8.2017 07:30 0 0 33,9 27,21
42 18.8.2017 07:00 0 0 35,88 26,02
43 18.8.2017 06:30 0 0 36,09 24,83
44 18.8.2017 06:00 0 0 36,17 24,35
45 18.8.2017 05:30 0 0 37,98 23,58
© 2011 Ministrstvo za kmetijstvo, gozdarstvo in prehrano. Vse pravice pridržane.